Time,TemperatureF,DewpointF,PressureIn,WindDirection,WindDirectionDegrees,WindSpeedMPH,WindSpeedGustMPH,Humidity,HourlyPrecipIn,Conditions,Clouds,dailyrainin,SoftwareType,DateUTC
2013-03-01 00:00:00,34.4,33.6,29.56,NW,325,2.0,5.0,97,0.00,,---,0.55,VWS V13.00,2013-03-01 05:00:00,
2013-03-01 00:05:00,34.4,33.6,29.56,NW,325,0.0,5.0,97,0.00,,---,0.55,VWS V13.00,2013-03-01 05:05:00,
2013-03-01 00:06:00,34.4,33.6,29.56,NW,325,0.0,5.0,97,0.00,,---,0.55,VWS V13.00,2013-03-01 05:06:00,
2013-03-01 00:11:00,34.4,33.6,29.56,NW,325,1.0,3.0,97,0.00,,---,0.00,VWS V13.00,2013-03-01 05:11:00,
2013-03-01 00:16:00,34.4,33.6,29.56,NW,325,0.0,3.0,97,0.00,,---,0.00,VWS V13.00,2013-03-01 05:16:00,
2013-03-01 00:21:00,34.4,33.6,29.56,NW,325,2.0,3.0,97,0.00,,---,0.00,VWS V13.00,2013-03-01 05:21:00,
2013-03-01 00:26:00,34.4,33.6,29.57,NW,325,0.0,3.0,97,0.00,,---,0.00,VWS V13.00,2013-03-01 05:26:00,
2013-03-01 00:31:00,34.4,33.6,29.57,NW,325,0.0,3.0,97,0.00,,---,0.00,VWS V13.00,2013-03-01 05:31:00,
2013-03-01 00:36:00,34.4,33.6,29.56,NW,325,0.0,3.0,97,0.00,,---,0.00,VWS V13.00,2013-03-01 05:36:00,
2013-03-01 00:41:00,34.4,33.6,29.56,NW,325,0.0,0.0,97,0.00,,---,0.00,VWS V13.00,2013-03-01 05:41:00,
2013-03-01 00:46:00,34.4,33.6,29.56,NW,325,0.0,1.0,97,0.00,,---,0.00,VWS V13.00,2013-03-01 05:46:00,
2013-03-01 00:51:00,34.4,33.6,29.56,NW,325,0.0,1.0,97,0.01,,---,0.01,VWS V13.00,2013-03-01 05:51:00,
2013-03-01 00:56:00,34.4,33.6,29.56,NW,325,0.0,1.0,97,0.01,,---,0.01,VWS V13.00,2013-03-01 05:56:00,
2013-03-01 01:01:00,34.3,33.5,29.56,NW,325,0.0,1.0,97,0.01,,---,0.01,VWS V13.00,2013-03-01 06:01:00,
2013-03-01 01:06:00,34.3,33.5,29.56,NW,325,0.0,3.0,97,0.01,,---,0.01,VWS V13.00,2013-03-01 06:06:00,
2013-03-01 01:11:00,34.4,33.6,29.56,NW,325,0.0,2.0,97,0.01,,---,0.01,VWS V13.00,2013-03-01 06:11:00,
2013-03-01 01:16:00,34.2,33.4,29.56,NW,325,0.0,2.0,97,0.01,,---,0.01,VWS V13.00,2013-03-01 06:16:00,
2013-03-01 01:21:00,34.2,33.4,29.56,NW,325,0.0,3.0,97,0.01,,---,0.01,VWS V13.00,2013-03-01 06:21:00,
2013-03-01 01:26:00,34.2,33.4,29.56,NW,325,1.0,3.0,97,0.01,,---,0.01,VWS V13.00,2013-03-01 06:26:00,
2013-03-01 01:31:00,34.1,33.3,29.56,NW,325,1.0,3.0,97,0.01,,---,0.01,VWS V13.00,2013-03-01 06:31:00,
2013-03-01 01:36:00,34.1,33.3,29.55,NW,325,2.0,3.0,97,0.01,,---,0.01,VWS V13.00,2013-03-01 06:36:00,
2013-03-01 01:41:00,34.0,33.2,29.55,NW,325,1.0,2.0,97,0.01,,---,0.01,VWS V13.00,2013-03-01 06:41:00,
2013-03-01 01:46:00,34.0,33.2,29.55,NW,325,0.0,3.0,97,0.01,,---,0.01,VWS V13.00,2013-03-01 06:46:00,
2013-03-01 01:51:00,33.9,33.1,29.55,NW,325,0.0,4.0,97,0.01,,---,0.01,VWS V13.00,2013-03-01 06:51:00,
2013-03-01 01:56:00,33.8,33.0,29.55,NW,325,2.0,4.0,97,0.01,,---,0.01,VWS V13.00,2013-03-01 06:56:00,
2013-03-01 02:01:00,33.7,32.9,29.55,NW,325,0.0,4.0,97,0.01,,---,0.01,VWS V13.00,2013-03-01 07:01:00,
2013-03-01 02:06:00,33.6,32.8,29.55,NW,325,3.0,5.0,97,0.01,,---,0.01,VWS V13.00,2013-03-01 07:06:00,
2013-03-01 02:11:00,33.6,32.8,29.55,NW,325,0.0,5.0,97,0.00,,---,0.01,VWS V13.00,2013-03-01 07:11:00,
2013-03-01 02:16:00,33.5,32.7,29.55,NW,325,0.0,5.0,97,0.00,,---,0.01,VWS V13.00,2013-03-01 07:16:00,
2013-03-01 02:21:00,33.5,32.7,29.55,NW,325,0.0,5.0,97,0.00,,---,0.01,VWS V13.00,2013-03-01 07:21:00,
2013-03-01 02:26:00,33.5,32.7,29.55,NW,325,0.0,5.0,97,0.00,,---,0.01,VWS V13.00,2013-03-01 07:26:00,
2013-03-01 02:31:00,33.5,32.7,29.55,NW,325,1.0,5.0,97,0.00,,---,0.01,VWS V13.00,2013-03-01 07:31:00,
2013-03-01 02:36:00,33.4,32.6,29.56,NW,325,0.0,5.0,97,0.00,,---,0.01,VWS V13.00,2013-03-01 07:36:00,
2013-03-01 02:41:00,33.3,32.5,29.56,NW,325,0.0,1.0,97,0.00,,---,0.01,VWS V13.00,2013-03-01 07:41:00,
2013-03-01 02:46:00,33.2,32.4,29.56,NW,325,0.0,4.0,97,0.00,,---,0.01,VWS V13.00,2013-03-01 07:46:00,
2013-03-01 02:51:00,33.1,32.3,29.56,NW,325,0.0,4.0,97,0.00,,---,0.01,VWS V13.00,2013-03-01 07:51:00,
2013-03-01 02:56:00,33.0,32.2,29.56,NW,325,0.0,4.0,97,0.00,,---,0.01,VWS V13.00,2013-03-01 07:56:00,
2013-03-01 03:01:00,33.0,32.2,29.56,NW,325,0.0,4.0,97,0.00,,---,0.01,VWS V13.00,2013-03-01 08:01:00,
2013-03-01 03:06:00,32.9,32.1,29.56,NW,325,1.0,4.0,97,0.00,,---,0.01,VWS V13.00,2013-03-01 08:06:00,
2013-03-01 03:11:00,32.8,32.0,29.56,NW,325,0.0,2.0,97,0.00,,---,0.01,VWS V13.00,2013-03-01 08:11:00,
2013-03-01 03:16:00,32.6,31.8,29.56,NW,325,1.0,4.0,97,0.00,,---,0.01,VWS V13.00,2013-03-01 08:16:00,
2013-03-01 03:21:00,32.5,31.7,29.56,NW,325,0.0,4.0,97,0.00,,---,0.01,VWS V13.00,2013-03-01 08:21:00,
2013-03-01 03:26:00,32.4,31.6,29.56,NW,324,0.0,4.0,97,0.00,,---,0.01,VWS V13.00,2013-03-01 08:26:00,
2013-03-01 03:31:00,32.3,31.5,29.56,NW,323,0.0,4.0,97,0.00,,---,0.01,VWS V13.00,2013-03-01 08:31:00,
2013-03-01 03:36:00,32.3,31.5,29.56,NW,323,0.0,4.0,97,0.00,,---,0.01,VWS V13.00,2013-03-01 08:36:00,
2013-03-01 03:41:00,32.1,31.4,29.57,NW,324,0.0,0.0,97,0.00,,---,0.01,VWS V13.00,2013-03-01 08:41:00,
2013-03-01 03:46:00,32.1,31.4,29.57,NW,323,0.0,1.0,97,0.00,,---,0.01,VWS V13.00,2013-03-01 08:46:00,
2013-03-01 03:51:00,32.0,31.2,29.57,NW,323,0.0,1.0,97,0.00,,---,0.01,VWS V13.00,2013-03-01 08:51:00,
2013-03-01 03:56:00,31.9,31.1,29.57,NW,323,0.0,1.0,97,0.00,,---,0.01,VWS V13.00,2013-03-01 08:56:00,
2013-03-01 04:01:00,31.8,31.0,29.57,NW,324,0.0,2.0,97,0.00,,---,0.01,VWS V13.00,2013-03-01 09:01:00,
2013-03-01 04:06:00,31.9,31.1,29.57,NW,324,0.0,3.0,97,0.00,,---,0.01,VWS V13.00,2013-03-01 09:06:00,
2013-03-01 04:11:00,31.9,31.4,29.57,NW,324,0.0,4.0,98,0.00,,---,0.01,VWS V13.00,2013-03-01 09:11:00,
2013-03-01 04:16:00,32.0,31.2,29.57,NW,323,1.0,4.0,97,0.00,,---,0.01,VWS V13.00,2013-03-01 09:16:00,
2013-03-01 04:21:00,32.1,31.6,29.57,NW,324,0.0,4.0,98,0.00,,---,0.01,VWS V13.00,2013-03-01 09:21:00,
2013-03-01 04:26:00,32.1,31.6,29.57,NW,324,3.0,4.0,98,0.00,,---,0.01,VWS V13.00,2013-03-01 09:26:00,
2013-03-01 04:31:00,32.1,31.6,29.57,NW,324,0.0,4.0,98,0.00,,---,0.01,VWS V13.00,2013-03-01 09:31:00,
2013-03-01 04:36:00,32.1,31.6,29.58,NNW,329,2.0,9.0,98,0.00,,---,0.01,VWS V13.00,2013-03-01 09:36:00,
2013-03-01 04:41:00,32.1,31.6,29.58,NNW,330,1.0,6.0,98,0.00,,---,0.01,VWS V13.00,2013-03-01 09:41:00,
2013-03-01 04:46:00,32.1,31.6,29.57,NNW,327,0.0,6.0,98,0.00,,---,0.01,VWS V13.00,2013-03-01 09:46:00,
2013-03-01 04:51:00,32.0,31.2,29.57,NNW,328,1.0,6.0,97,0.00,,---,0.01,VWS V13.00,2013-03-01 09:51:00,
2013-03-01 04:56:00,31.9,31.1,29.58,NNW,330,1.0,7.0,97,0.00,,---,0.01,VWS V13.00,2013-03-01 09:56:00,
2013-03-01 05:01:00,31.9,31.1,29.58,NNW,330,0.0,7.0,97,0.00,,---,0.01,VWS V13.00,2013-03-01 10:01:00,
2013-03-01 05:06:00,31.8,31.0,29.58,NNW,330,2.0,7.0,97,0.00,,---,0.01,VWS V13.00,2013-03-01 10:06:00,
2013-03-01 05:11:00,31.7,31.2,29.58,NNW,329,3.0,5.0,98,0.00,,---,0.01,VWS V13.00,2013-03-01 10:11:00,
2013-03-01 05:16:00,31.7,31.2,29.58,NNW,329,0.0,5.0,98,0.00,,---,0.01,VWS V13.00,2013-03-01 10:16:00,
2013-03-01 05:21:00,31.7,31.2,29.58,NNW,329,2.0,5.0,98,0.00,,---,0.01,VWS V13.00,2013-03-01 10:21:00,
2013-03-01 05:26:00,31.6,31.1,29.58,NNW,330,3.0,6.0,98,0.00,,---,0.01,VWS V13.00,2013-03-01 10:26:00,
2013-03-01 05:31:00,31.6,31.1,29.58,NW,321,0.0,10.0,98,0.00,,---,0.01,VWS V13.00,2013-03-01 10:31:00,
2013-03-01 05:36:00,31.6,31.1,29.58,NW,323,0.0,10.0,98,0.00,,---,0.01,VWS V13.00,2013-03-01 10:36:00,
2013-03-01 05:41:00,31.5,31.0,29.58,NW,319,1.0,7.0,98,0.00,,---,0.01,VWS V13.00,2013-03-01 10:41:00,
2013-03-01 05:46:00,31.4,30.6,29.59,NW,323,3.0,7.0,97,0.00,,---,0.01,VWS V13.00,2013-03-01 10:46:00,
2013-03-01 05:51:00,31.4,30.6,29.59,NW,323,0.0,7.0,97,0.00,,---,0.01,VWS V13.00,2013-03-01 10:51:00,
2013-03-01 05:56:00,31.4,30.6,29.59,NNW,329,2.0,8.0,97,0.00,,---,0.01,VWS V13.00,2013-03-01 10:56:00,
2013-03-01 06:01:00,31.3,30.5,29.59,NNW,329,3.0,8.0,97,0.00,,---,0.01,VWS V13.00,2013-03-01 11:01:00,
2013-03-01 06:06:00,31.3,30.5,29.59,NNW,331,0.0,8.0,97,0.00,,---,0.01,VWS V13.00,2013-03-01 11:06:00,
2013-03-01 06:11:00,31.2,30.5,29.59,NNW,331,1.0,4.0,97,0.00,,---,0.01,VWS V13.00,2013-03-01 11:11:00,
2013-03-01 06:16:00,31.3,30.5,29.59,NNW,331,0.0,4.0,97,0.00,,---,0.01,VWS V13.00,2013-03-01 11:16:00,
2013-03-01 06:21:00,31.2,30.5,29.59,NNW,331,1.0,4.0,97,0.00,,---,0.01,VWS V13.00,2013-03-01 11:21:00,
2013-03-01 06:26:00,31.0,30.2,29.59,NNW,327,1.0,7.0,97,0.00,,---,0.01,VWS V13.00,2013-03-01 11:26:00,
2013-03-01 06:31:00,31.0,30.2,29.59,NNW,329,3.0,7.0,97,0.00,,---,0.01,VWS V13.00,2013-03-01 11:31:00,
2013-03-01 06:36:00,30.9,30.1,29.60,NNW,329,2.0,7.0,97,0.00,,---,0.01,VWS V13.00,2013-03-01 11:36:00,
2013-03-01 06:41:00,30.9,30.4,29.60,NNW,329,0.0,4.0,98,0.00,,---,0.01,VWS V13.00,2013-03-01 11:41:00,
2013-03-01 06:46:00,31.0,30.5,29.60,NNW,328,2.0,4.0,98,0.00,,---,0.01,VWS V13.00,2013-03-01 11:46:00,
2013-03-01 06:51:00,31.1,30.6,29.60,NNW,329,1.0,5.0,98,0.00,,---,0.01,VWS V13.00,2013-03-01 11:51:00,
2013-03-01 06:56:00,31.1,30.4,29.60,NNW,329,1.0,5.0,97,0.00,,---,0.01,VWS V13.00,2013-03-01 11:56:00,
2013-03-01 07:01:00,31.1,30.4,29.61,NNW,328,2.0,5.0,97,0.00,,---,0.01,VWS V13.00,2013-03-01 12:01:00,
2013-03-01 07:06:00,31.2,30.5,29.61,NW,325,0.0,5.0,97,0.00,,---,0.01,VWS V13.00,2013-03-01 12:06:00,
2013-03-01 07:11:00,31.3,30.8,29.61,NNW,327,2.0,6.0,98,0.00,,---,0.01,VWS V13.00,2013-03-01 12:11:00,
2013-03-01 07:16:00,31.4,30.6,29.62,NW,326,4.0,7.0,97,0.00,,---,0.01,VWS V13.00,2013-03-01 12:16:00,
2013-03-01 07:21:00,31.6,30.9,29.61,NNW,327,0.0,7.0,97,0.00,,---,0.01,VWS V13.00,2013-03-01 12:21:00,
2013-03-01 07:26:00,31.7,31.0,29.61,NNW,332,3.0,7.0,97,0.00,,---,0.01,VWS V13.00,2013-03-01 12:26:00,
2013-03-01 07:31:00,32.0,31.2,29.61,NNW,327,0.0,7.0,97,0.00,,---,0.01,VWS V13.00,2013-03-01 12:31:00,
2013-03-01 07:36:00,32.2,31.5,29.62,WNW,302,4.0,7.0,97,0.00,,---,0.01,VWS V13.00,2013-03-01 12:36:00,
2013-03-01 07:41:00,32.4,31.6,29.62,NNW,327,5.0,10.0,97,0.00,,---,0.01,VWS V13.00,2013-03-01 12:41:00,
2013-03-01 07:46:00,32.6,31.8,29.62,NW,309,9.0,10.0,97,0.00,,---,0.01,VWS V13.00,2013-03-01 12:46:00,
2013-03-01 07:51:00,32.9,32.1,29.62,WNW,300,0.0,10.0,97,0.00,,---,0.01,VWS V13.00,2013-03-01 12:51:00,
2013-03-01 07:56:00,33.0,32.2,29.62,WNW,300,1.0,10.0,97,0.00,,---,0.01,VWS V13.00,2013-03-01 12:56:00,
2013-03-01 08:01:00,33.2,32.2,29.63,NW,311,2.0,10.0,96,0.00,,---,0.01,VWS V13.00,2013-03-01 13:01:00,
2013-03-01 08:06:00,33.4,32.4,29.63,NW,304,2.0,10.0,96,0.00,,---,0.01,VWS V13.00,2013-03-01 13:06:00,
2013-03-01 08:11:00,33.8,32.8,29.63,NNW,340,5.0,9.0,96,0.00,,---,0.01,VWS V13.00,2013-03-01 13:11:00,
2013-03-01 08:16:00,34.4,33.1,29.63,NNW,338,2.0,9.0,95,0.00,,---,0.01,VWS V13.00,2013-03-01 13:16:00,
2013-03-01 08:21:00,34.8,33.2,29.63,WNW,287,5.0,9.0,94,0.00,,---,0.01,VWS V13.00,2013-03-01 13:21:00,
2013-03-01 08:26:00,35.4,33.6,29.63,WNW,297,0.0,9.0,93,0.00,,---,0.01,VWS V13.00,2013-03-01 13:26:00,
2013-03-01 08:31:00,35.6,33.2,29.63,NW,315,4.0,9.0,91,0.00,,---,0.01,VWS V13.00,2013-03-01 13:31:00,
2013-03-01 08:36:00,35.8,32.9,29.63,WNW,284,3.0,9.0,89,0.00,,---,0.01,VWS V13.00,2013-03-01 13:36:00,
2013-03-01 08:41:00,36.0,32.8,29.63,WNW,298,1.0,10.0,88,0.00,,---,0.01,VWS V13.00,2013-03-01 13:41:00,
2013-03-01 08:46:00,36.1,32.3,29.63,NNW,329,4.0,12.0,86,0.00,,---,0.01,VWS V13.00,2013-03-01 13:46:00,
2013-03-01 08:51:00,36.2,32.4,29.63,NNW,346,4.0,12.0,86,0.00,,---,0.01,VWS V13.00,2013-03-01 13:51:00,
2013-03-01 08:56:00,36.3,32.2,29.63,NW,314,2.0,12.0,85,0.00,,---,0.01,VWS V13.00,2013-03-01 13:56:00,
2013-03-01 09:01:00,36.3,31.9,29.63,North,5,5.0,12.0,84,0.00,,---,0.01,VWS V13.00,2013-03-01 14:01:00,
2013-03-01 09:06:00,36.3,31.6,29.63,NE,37,0.0,12.0,83,0.00,,---,0.01,VWS V13.00,2013-03-01 14:06:00,
2013-03-01 09:11:00,36.4,31.7,29.63,NW,309,0.0,6.0,83,0.00,,---,0.01,VWS V13.00,2013-03-01 14:11:00,
2013-03-01 09:16:00,36.5,31.5,29.63,NNW,333,1.0,9.0,82,0.00,,---,0.01,VWS V13.00,2013-03-01 14:16:00,
2013-03-01 09:21:00,36.7,31.7,29.64,NW,312,1.0,9.0,82,0.00,,---,0.01,VWS V13.00,2013-03-01 14:21:00,
2013-03-01 09:26:00,36.8,31.8,29.64,WNW,286,4.0,9.0,82,0.00,,---,0.01,VWS V13.00,2013-03-01 14:26:00,
2013-03-01 09:31:00,36.8,31.5,29.64,West,279,5.0,10.0,81,0.01,,---,0.02,VWS V13.00,2013-03-01 14:31:00,
2013-03-01 09:36:00,36.6,31.3,29.64,NW,325,5.0,10.0,81,0.01,,---,0.02,VWS V13.00,2013-03-01 14:36:00,
2013-03-01 09:41:00,36.6,31.3,29.64,NW,304,1.0,8.0,81,0.01,,---,0.02,VWS V13.00,2013-03-01 14:41:00,
2013-03-01 09:46:00,36.7,31.4,29.65,North,360,3.0,11.0,81,0.01,,---,0.02,VWS V13.00,2013-03-01 14:46:00,
2013-03-01 09:51:00,36.6,31.0,29.65,WNW,287,2.0,11.0,80,0.01,,---,0.02,VWS V13.00,2013-03-01 14:51:00,
2013-03-01 09:56:00,36.6,31.0,29.65,North,360,7.0,11.0,80,0.01,,---,0.02,VWS V13.00,2013-03-01 14:56:00,
2013-03-01 10:01:00,36.6,31.0,29.65,NW,321,0.0,11.0,80,0.01,,---,0.02,VWS V13.00,2013-03-01 15:01:00,
2013-03-01 10:06:00,36.8,31.2,29.65,NW,308,3.0,11.0,80,0.01,,---,0.02,VWS V13.00,2013-03-01 15:06:00,
2013-03-01 10:11:00,36.9,31.0,29.65,WNW,292,3.0,7.0,79,0.01,,---,0.02,VWS V13.00,2013-03-01 15:11:00,
2013-03-01 10:16:00,36.9,31.0,29.65,WNW,302,5.0,7.0,79,0.01,,---,0.02,VWS V13.00,2013-03-01 15:16:00,
2013-03-01 10:21:00,37.1,30.9,29.65,NW,326,1.0,7.0,78,0.01,,---,0.02,VWS V13.00,2013-03-01 15:21:00,
2013-03-01 10:26:00,37.2,31.0,29.65,NW,313,0.0,10.0,78,0.01,,---,0.02,VWS V13.00,2013-03-01 15:26:00,
2013-03-01 10:31:00,37.2,31.0,29.65,West,274,2.0,10.0,78,0.01,,---,0.02,VWS V13.00,2013-03-01 15:31:00,
2013-03-01 10:36:00,37.3,31.1,29.65,NNW,328,2.0,10.0,78,0.01,,---,0.02,VWS V13.00,2013-03-01 15:36:00,
2013-03-01 10:41:00,37.5,31.3,29.64,NW,311,3.0,7.0,78,0.00,,---,0.02,VWS V13.00,2013-03-01 15:41:00,
2013-03-01 10:46:00,37.6,31.1,29.65,WNW,288,1.0,9.0,77,0.00,,---,0.02,VWS V13.00,2013-03-01 15:46:00,
2013-03-01 10:51:00,37.7,31.1,29.65,NNW,330,4.0,9.0,77,0.00,,---,0.02,VWS V13.00,2013-03-01 15:51:00,
2013-03-01 10:56:00,37.9,31.0,29.65,WNW,294,2.0,9.0,76,0.01,,---,0.03,VWS V13.00,2013-03-01 15:56:00,
2013-03-01 11:01:00,38.0,31.1,29.65,West,271,4.0,11.0,76,0.01,,---,0.03,VWS V13.00,2013-03-01 16:01:00,
2013-03-01 11:06:00,38.0,31.1,29.65,NW,309,5.0,11.0,76,0.01,,---,0.03,VWS V13.00,2013-03-01 16:06:00,
2013-03-01 11:11:00,38.0,30.8,29.65,WNW,292,4.0,10.0,75,0.01,,---,0.03,VWS V13.00,2013-03-01 16:11:00,
2013-03-01 11:16:00,37.9,31.0,29.65,NW,310,1.0,11.0,76,0.01,,---,0.03,VWS V13.00,2013-03-01 16:16:00,
2013-03-01 11:21:00,38.0,30.8,29.65,WNW,289,4.0,13.0,75,0.01,,---,0.03,VWS V13.00,2013-03-01 16:21:00,
2013-03-01 11:26:00,38.0,31.1,29.65,NW,311,2.0,13.0,76,0.01,,---,0.03,VWS V13.00,2013-03-01 16:26:00,
2013-03-01 11:31:00,37.9,30.7,29.66,NW,311,7.0,13.0,75,0.01,,---,0.03,VWS V13.00,2013-03-01 16:31:00,
2013-03-01 11:36:00,37.7,30.8,29.66,WNW,296,3.0,13.0,76,0.01,,---,0.03,VWS V13.00,2013-03-01 16:36:00,
2013-03-01 11:41:00,37.6,30.7,29.66,NW,316,3.0,10.0,76,0.02,,---,0.04,VWS V13.00,2013-03-01 16:41:00,
2013-03-01 11:46:00,37.3,30.4,29.66,WNW,286,5.0,10.0,76,0.02,,---,0.04,VWS V13.00,2013-03-01 16:46:00,
2013-03-01 11:51:00,37.1,30.2,29.66,NNW,337,1.0,10.0,76,0.02,,---,0.04,VWS V13.00,2013-03-01 16:51:00,
2013-03-01 11:56:00,36.9,30.4,29.66,NNE,32,4.0,10.0,77,0.02,,---,0.04,VWS V13.00,2013-03-01 16:56:00,
2013-03-01 12:01:00,36.7,30.2,29.66,West,275,2.0,11.0,77,0.02,,---,0.04,VWS V13.00,2013-03-01 17:01:00,
2013-03-01 12:06:00,36.7,30.2,29.66,WNW,288,4.0,11.0,77,0.02,,---,0.04,VWS V13.00,2013-03-01 17:06:00,
2013-03-01 12:11:00,36.6,30.1,29.66,West,265,3.0,10.0,77,0.01,,---,0.04,VWS V13.00,2013-03-01 17:11:00,
2013-03-01 12:16:00,36.5,30.0,29.66,NW,321,4.0,10.0,77,0.01,,---,0.04,VWS V13.00,2013-03-01 17:16:00,
2013-03-01 12:21:00,36.4,29.9,29.66,North,355,1.0,11.0,77,0.01,,---,0.04,VWS V13.00,2013-03-01 17:21:00,
2013-03-01 12:26:00,36.5,30.0,29.66,West,277,1.0,11.0,77,0.01,,---,0.04,VWS V13.00,2013-03-01 17:26:00,
2013-03-01 12:31:00,36.7,29.9,29.66,WNW,302,2.0,11.0,76,0.01,,---,0.04,VWS V13.00,2013-03-01 17:31:00,
2013-03-01 12:36:00,36.8,30.3,29.66,NW,313,2.0,11.0,77,0.01,,---,0.04,VWS V13.00,2013-03-01 17:36:00,
2013-03-01 12:41:00,36.9,30.4,29.66,NNW,329,5.0,7.0,77,0.01,,---,0.04,VWS V13.00,2013-03-01 17:41:00,
2013-03-01 12:46:00,37.0,30.1,29.66,NW,309,3.0,9.0,76,0.01,,---,0.04,VWS V13.00,2013-03-01 17:46:00,
2013-03-01 12:51:00,37.0,29.8,29.66,NW,325,0.0,10.0,75,0.01,,---,0.04,VWS V13.00,2013-03-01 17:51:00,
2013-03-01 12:56:00,37.2,30.4,29.66,NW,325,1.0,10.0,76,0.01,,---,0.04,VWS V13.00,2013-03-01 17:56:00,
2013-03-01 13:01:00,37.3,30.1,29.66,NW,312,3.0,10.0,75,0.01,,---,0.04,VWS V13.00,2013-03-01 18:01:00,
2013-03-01 13:06:00,37.4,30.2,29.65,NW,318,2.0,12.0,75,0.01,,---,0.04,VWS V13.00,2013-03-01 18:06:00,
2013-03-01 13:11:00,37.3,30.1,29.65,NW,317,9.0,11.0,75,0.00,,---,0.04,VWS V13.00,2013-03-01 18:11:00,
2013-03-01 13:16:00,37.0,29.8,29.65,NW,312,5.0,11.0,75,0.00,,---,0.04,VWS V13.00,2013-03-01 18:16:00,
2013-03-01 13:21:00,37.1,30.2,29.65,NNW,342,0.0,11.0,76,0.00,,---,0.04,VWS V13.00,2013-03-01 18:21:00,
2013-03-01 13:26:00,37.2,30.0,29.65,NW,318,2.0,11.0,75,0.00,,---,0.04,VWS V13.00,2013-03-01 18:26:00,
2013-03-01 13:31:00,37.2,30.0,29.65,NNW,348,3.0,11.0,75,0.00,,---,0.04,VWS V13.00,2013-03-01 18:31:00,
2013-03-01 13:36:00,37.1,30.2,29.65,NNW,327,3.0,11.0,76,0.00,,---,0.04,VWS V13.00,2013-03-01 18:36:00,
2013-03-01 13:41:00,37.2,30.4,29.65,NW,315,4.0,10.0,76,0.00,,---,0.04,VWS V13.00,2013-03-01 18:41:00,
2013-03-01 13:46:00,37.5,30.3,29.65,NW,307,3.0,10.0,75,0.01,,---,0.05,VWS V13.00,2013-03-01 18:46:00,
2013-03-01 13:51:00,37.7,30.2,29.65,North,9,5.0,10.0,74,0.01,,---,0.05,VWS V13.00,2013-03-01 18:51:00,
2013-03-01 13:56:00,37.9,30.4,29.65,NW,325,1.0,10.0,74,0.01,,---,0.05,VWS V13.00,2013-03-01 18:56:00,
2013-03-01 14:01:00,38.0,30.5,29.65,WNW,288,0.0,10.0,74,0.01,,---,0.05,VWS V13.00,2013-03-01 19:01:00,
2013-03-01 14:06:00,38.0,30.5,29.65,NW,310,0.0,10.0,74,0.01,,---,0.05,VWS V13.00,2013-03-01 19:06:00,
2013-03-01 14:11:00,38.0,30.1,29.65,NNW,337,0.0,6.0,73,0.01,,---,0.05,VWS V13.00,2013-03-01 19:11:00,
2013-03-01 14:16:00,38.0,30.1,29.66,NW,313,2.0,7.0,73,0.01,,---,0.05,VWS V13.00,2013-03-01 19:16:00,
2013-03-01 14:21:00,37.7,29.8,29.66,NNW,331,1.0,9.0,73,0.01,,---,0.05,VWS V13.00,2013-03-01 19:21:00,
2013-03-01 14:26:00,37.6,30.1,29.66,NW,312,2.0,9.0,74,0.01,,---,0.05,VWS V13.00,2013-03-01 19:26:00,
2013-03-01 14:31:00,37.5,30.0,29.66,North,350,6.0,9.0,74,0.01,,---,0.05,VWS V13.00,2013-03-01 19:31:00,
2013-03-01 14:36:00,37.5,29.6,29.66,WNW,294,3.0,9.0,73,0.01,,---,0.05,VWS V13.00,2013-03-01 19:36:00,
2013-03-01 14:41:00,37.6,30.1,29.66,NW,314,0.0,5.0,74,0.01,,---,0.05,VWS V13.00,2013-03-01 19:41:00,
2013-03-01 14:46:00,37.6,30.1,29.66,WNW,303,2.0,9.0,74,0.01,,---,0.05,VWS V13.00,2013-03-01 19:46:00,
2013-03-01 14:51:00,37.5,29.6,29.66,WNW,303,4.0,9.0,73,0.01,,---,0.05,VWS V13.00,2013-03-01 19:51:00,
2013-03-01 14:56:00,37.4,29.9,29.66,NNW,335,4.0,9.0,74,0.01,,---,0.05,VWS V13.00,2013-03-01 19:56:00,
2013-03-01 15:01:00,37.3,29.8,29.66,NNW,334,2.0,9.0,74,0.02,,---,0.06,VWS V13.00,2013-03-01 20:01:00,
2013-03-01 15:06:00,37.2,30.0,29.66,North,360,1.0,9.0,75,0.02,,---,0.06,VWS V13.00,2013-03-01 20:06:00,
2013-03-01 15:11:00,37.2,29.4,29.67,NNW,338,1.0,9.0,73,0.01,,---,0.06,VWS V13.00,2013-03-01 20:11:00,
2013-03-01 15:16:00,37.2,29.7,29.67,North,9,1.0,11.0,74,0.01,,---,0.06,VWS V13.00,2013-03-01 20:16:00,
2013-03-01 15:21:00,37.0,29.5,29.67,NW,309,1.0,11.0,74,0.01,,---,0.06,VWS V13.00,2013-03-01 20:21:00,
2013-03-01 15:26:00,37.0,30.1,29.67,NW,313,2.0,11.0,76,0.01,,---,0.06,VWS V13.00,2013-03-01 20:26:00,
2013-03-01 15:31:00,36.9,29.7,29.67,NW,321,2.0,11.0,75,0.01,,---,0.06,VWS V13.00,2013-03-01 20:31:00,
2013-03-01 15:36:00,36.9,29.4,29.67,NNW,333,0.0,11.0,74,0.01,,---,0.06,VWS V13.00,2013-03-01 20:36:00,
2013-03-01 15:41:00,36.9,29.7,29.67,NW,318,6.0,6.0,75,0.01,,---,0.06,VWS V13.00,2013-03-01 20:41:00,
2013-03-01 15:46:00,36.9,29.4,29.67,NW,309,3.0,6.0,74,0.01,,---,0.06,VWS V13.00,2013-03-01 20:46:00,
2013-03-01 15:51:00,36.9,29.4,29.67,NW,316,3.0,10.0,74,0.01,,---,0.06,VWS V13.00,2013-03-01 20:51:00,
2013-03-01 15:56:00,36.8,29.3,29.67,NW,317,3.0,11.0,74,0.01,,---,0.06,VWS V13.00,2013-03-01 20:56:00,
2013-03-01 16:01:00,36.8,29.6,29.67,NW,323,3.0,11.0,75,0.01,,---,0.06,VWS V13.00,2013-03-01 21:01:00,
2013-03-01 16:06:00,36.8,29.6,29.67,NW,326,1.0,11.0,75,0.01,,---,0.06,VWS V13.00,2013-03-01 21:06:00,
2013-03-01 16:11:00,36.7,29.5,29.67,NW,325,2.0,9.0,75,0.00,,---,0.06,VWS V13.00,2013-03-01 21:11:00,
2013-03-01 16:16:00,36.7,29.5,29.67,NNW,337,1.0,9.0,75,0.00,,---,0.06,VWS V13.00,2013-03-01 21:16:00,
2013-03-01 16:21:00,36.7,29.5,29.67,NNW,333,4.0,9.0,75,0.00,,---,0.06,VWS V13.00,2013-03-01 21:21:00,
2013-03-01 16:26:00,36.6,29.1,29.67,NNW,332,1.0,9.0,74,0.00,,---,0.06,VWS V13.00,2013-03-01 21:26:00,
2013-03-01 16:31:00,36.6,29.4,29.67,North,355,1.0,9.0,75,0.00,,---,0.06,VWS V13.00,2013-03-01 21:31:00,
2013-03-01 16:36:00,36.5,29.3,29.68,NW,314,2.0,10.0,75,0.00,,---,0.06,VWS V13.00,2013-03-01 21:36:00,
2013-03-01 16:41:00,36.4,29.2,29.68,NW,325,4.0,9.0,75,0.00,,---,0.06,VWS V13.00,2013-03-01 21:41:00,
2013-03-01 16:46:00,36.3,29.1,29.68,NW,306,5.0,9.0,75,0.00,,---,0.06,VWS V13.00,2013-03-01 21:46:00,
2013-03-01 16:51:00,36.2,29.0,29.68,NW,310,4.0,9.0,75,0.00,,---,0.06,VWS V13.00,2013-03-01 21:51:00,
2013-03-01 16:56:00,36.1,29.0,29.68,NNW,332,2.0,9.0,75,0.00,,---,0.06,VWS V13.00,2013-03-01 21:56:00,
2013-03-01 17:01:00,36.1,29.0,29.68,NW,319,2.0,10.0,75,0.00,,---,0.06,VWS V13.00,2013-03-01 22:01:00,
2013-03-01 17:06:00,36.0,29.2,29.68,NNW,329,2.0,10.0,76,0.00,,---,0.06,VWS V13.00,2013-03-01 22:06:00,
2013-03-01 17:11:00,35.9,29.4,29.68,NW,322,1.0,6.0,77,0.00,,---,0.06,VWS V13.00,2013-03-01 22:11:00,
2013-03-01 17:16:00,35.8,29.0,29.69,NNW,341,3.0,8.0,76,0.00,,---,0.06,VWS V13.00,2013-03-01 22:16:00,
2013-03-01 17:21:00,35.7,29.2,29.68,NNW,331,1.0,8.0,77,0.00,,---,0.06,VWS V13.00,2013-03-01 22:21:00,
2013-03-01 17:26:00,35.6,29.4,29.69,NNW,342,4.0,8.0,78,0.00,,---,0.06,VWS V13.00,2013-03-01 22:26:00,
2013-03-01 17:31:00,35.5,29.0,29.69,NW,309,4.0,10.0,77,0.00,,---,0.06,VWS V13.00,2013-03-01 22:31:00,
2013-03-01 17:36:00,35.4,28.9,29.69,West,271,1.0,10.0,77,0.00,,---,0.06,VWS V13.00,2013-03-01 22:36:00,
2013-03-01 17:41:00,35.3,29.1,29.69,North,11,5.0,9.0,78,0.00,,---,0.06,VWS V13.00,2013-03-01 22:41:00,
2013-03-01 17:46:00,35.3,29.1,29.69,NW,306,0.0,9.0,78,0.00,,---,0.06,VWS V13.00,2013-03-01 22:46:00,
2013-03-01 17:51:00,35.2,29.0,29.69,NNW,338,1.0,13.0,78,0.00,,---,0.06,VWS V13.00,2013-03-01 22:51:00,
2013-03-01 17:56:00,35.2,29.0,29.69,WNW,287,3.0,13.0,78,0.00,,---,0.06,VWS V13.00,2013-03-01 22:56:00,
2013-03-01 18:01:00,35.1,28.9,29.70,NW,312,3.0,13.0,78,0.00,,---,0.06,VWS V13.00,2013-03-01 23:01:00,
2013-03-01 18:06:00,35.1,28.9,29.70,WNW,299,7.0,13.0,78,0.00,,---,0.06,VWS V13.00,2013-03-01 23:06:00,
2013-03-01 18:11:00,35.1,28.9,29.70,NNW,328,1.0,5.0,78,0.00,,---,0.06,VWS V13.00,2013-03-01 23:11:00,
2013-03-01 18:16:00,35.0,28.9,29.70,NW,311,2.0,7.0,78,0.00,,---,0.06,VWS V13.00,2013-03-01 23:16:00,
2013-03-01 18:21:00,35.0,29.2,29.70,WNW,298,3.0,10.0,79,0.00,,---,0.06,VWS V13.00,2013-03-01 23:21:00,
2013-03-01 18:26:00,34.8,29.0,29.70,NW,315,2.0,10.0,79,0.00,,---,0.06,VWS V13.00,2013-03-01 23:26:00,
2013-03-01 18:31:00,34.8,29.0,29.70,WNW,302,1.0,11.0,79,0.00,,---,0.06,VWS V13.00,2013-03-01 23:31:00,
2013-03-01 18:36:00,34.7,28.9,29.70,WNW,303,5.0,12.0,79,0.00,,---,0.06,VWS V13.00,2013-03-01 23:36:00,
2013-03-01 18:41:00,34.6,28.8,29.70,North,355,3.0,12.0,79,0.00,,---,0.06,VWS V13.00,2013-03-01 23:41:00,
2013-03-01 18:46:00,34.6,29.1,29.70,NNW,331,0.0,12.0,80,0.00,,---,0.06,VWS V13.00,2013-03-01 23:46:00,
2013-03-01 18:51:00,34.5,28.7,29.70,NW,304,2.0,12.0,79,0.00,,---,0.06,VWS V13.00,2013-03-01 23:51:00,
2013-03-01 18:56:00,34.4,28.9,29.70,WNW,303,4.0,12.0,80,0.00,,---,0.06,VWS V13.00,2013-03-01 23:56:00,
2013-03-01 19:01:00,34.4,28.9,29.70,NNW,331,2.0,12.0,80,0.00,,---,0.06,VWS V13.00,2013-03-02 00:01:00,
2013-03-01 19:06:00,34.4,28.9,29.70,NW,309,1.0,12.0,80,0.00,,---,0.06,VWS V13.00,2013-03-02 00:06:00,
2013-03-01 19:11:00,34.4,29.2,29.70,NNE,30,5.0,12.0,81,0.00,,---,0.06,VWS V13.00,2013-03-02 00:11:00,
2013-03-01 19:16:00,34.4,29.2,29.70,NNW,341,6.0,12.0,81,0.00,,---,0.06,VWS V13.00,2013-03-02 00:16:00,
2013-03-01 19:21:00,34.4,29.2,29.70,NNW,333,4.0,12.0,81,0.00,,---,0.06,VWS V13.00,2013-03-02 00:21:00,
2013-03-01 19:26:00,34.4,29.2,29.70,NNW,336,2.0,12.0,81,0.00,,---,0.06,VWS V13.00,2013-03-02 00:26:00,
2013-03-01 19:31:00,34.3,29.1,29.70,NW,314,3.0,12.0,81,0.00,,---,0.06,VWS V13.00,2013-03-02 00:31:00,
2013-03-01 19:36:00,34.2,29.0,29.70,NW,326,1.0,12.0,81,0.00,,---,0.06,VWS V13.00,2013-03-02 00:36:00,
2013-03-01 19:41:00,34.1,29.2,29.70,NNW,327,2.0,11.0,82,0.00,,---,0.06,VWS V13.00,2013-03-02 00:41:00,
2013-03-01 19:46:00,34.1,29.2,29.70,WNW,292,1.0,11.0,82,0.00,,---,0.06,VWS V13.00,2013-03-02 00:46:00,
2013-03-01 19:51:00,34.0,29.1,29.70,WNW,294,3.0,11.0,82,0.00,,---,0.06,VWS V13.00,2013-03-02 00:51:00,
2013-03-01 19:56:00,34.0,29.4,29.70,West,275,1.0,11.0,83,0.00,,---,0.06,VWS V13.00,2013-03-02 00:56:00,
2013-03-01 20:01:00,33.9,29.3,29.70,NW,311,5.0,12.0,83,0.00,,---,0.06,VWS V13.00,2013-03-02 01:01:00,
2013-03-01 20:06:00,33.9,29.3,29.70,NW,317,6.0,12.0,83,0.00,,---,0.06,VWS V13.00,2013-03-02 01:06:00,
2013-03-01 20:11:00,33.8,29.2,29.70,NNW,347,0.0,5.0,83,0.00,,---,0.06,VWS V13.00,2013-03-02 01:11:00,
2013-03-01 20:16:00,33.8,29.2,29.70,North,10,6.0,7.0,83,0.00,,---,0.06,VWS V13.00,2013-03-02 01:16:00,
2013-03-01 20:21:00,33.7,29.1,29.70,NW,321,0.0,8.0,83,0.00,,---,0.06,VWS V13.00,2013-03-02 01:21:00,
2013-03-01 20:26:00,33.7,29.1,29.70,NW,312,1.0,10.0,83,0.00,,---,0.06,VWS V13.00,2013-03-02 01:26:00,
2013-03-01 20:31:00,33.7,29.1,29.70,West,269,4.0,10.0,83,0.00,,---,0.06,VWS V13.00,2013-03-02 01:31:00,
2013-03-01 20:36:00,33.6,29.0,29.70,WNW,300,2.0,10.0,83,0.00,,---,0.06,VWS V13.00,2013-03-02 01:36:00,
2013-03-01 20:41:00,33.6,29.0,29.70,NNW,328,2.0,4.0,83,0.00,,---,0.06,VWS V13.00,2013-03-02 01:41:00,
2013-03-01 20:46:00,33.5,28.9,29.70,NW,315,1.0,9.0,83,0.00,,---,0.06,VWS V13.00,2013-03-02 01:46:00,
2013-03-01 20:51:00,33.5,28.9,29.70,NNW,344,3.0,9.0,83,0.00,,---,0.06,VWS V13.00,2013-03-02 01:51:00,
2013-03-01 20:56:00,33.4,28.8,29.71,NW,319,3.0,9.0,83,0.00,,---,0.06,VWS V13.00,2013-03-02 01:56:00,
2013-03-01 21:01:00,33.4,28.8,29.71,NW,318,3.0,9.0,83,0.00,,---,0.06,VWS V13.00,2013-03-02 02:01:00,
2013-03-01 21:06:00,33.4,28.8,29.71,WNW,291,1.0,9.0,83,0.00,,---,0.06,VWS V13.00,2013-03-02 02:06:00,
2013-03-01 21:11:00,33.4,28.8,29.70,NW,325,4.0,6.0,83,0.00,,---,0.06,VWS V13.00,2013-03-02 02:11:00,
2013-03-01 21:16:00,33.4,28.8,29.70,NW,321,3.0,6.0,83,0.00,,---,0.06,VWS V13.00,2013-03-02 02:16:00,
2013-03-01 21:21:00,33.3,28.7,29.70,WNW,294,2.0,7.0,83,0.00,,---,0.06,VWS V13.00,2013-03-02 02:21:00,
2013-03-01 21:26:00,33.3,28.7,29.70,NW,321,6.0,10.0,83,0.00,,---,0.06,VWS V13.00,2013-03-02 02:26:00,
2013-03-01 21:31:00,33.3,28.7,29.70,NNW,331,3.0,12.0,83,0.00,,---,0.06,VWS V13.00,2013-03-02 02:31:00,
2013-03-01 21:36:00,33.3,28.4,29.70,NW,304,2.0,12.0,82,0.00,,---,0.06,VWS V13.00,2013-03-02 02:36:00,
2013-03-01 21:41:00,33.3,28.4,29.70,NW,325,1.0,8.0,82,0.00,,---,0.06,VWS V13.00,2013-03-02 02:41:00,
2013-03-01 21:46:00,33.2,28.6,29.70,NW,315,5.0,8.0,83,0.00,,---,0.06,VWS V13.00,2013-03-02 02:46:00,
2013-03-01 21:51:00,33.1,28.5,29.70,WNW,294,2.0,9.0,83,0.00,,---,0.06,VWS V13.00,2013-03-02 02:51:00,
2013-03-01 21:56:00,33.1,28.5,29.70,NNW,333,3.0,9.0,83,0.00,,---,0.06,VWS V13.00,2013-03-02 02:56:00,
2013-03-01 22:01:00,33.0,28.4,29.70,WNW,296,2.0,12.0,83,0.00,,---,0.06,VWS V13.00,2013-03-02 03:01:00,
2013-03-01 22:06:00,33.1,28.5,29.70,WNW,298,5.0,13.0,83,0.00,,---,0.06,VWS V13.00,2013-03-02 03:06:00,
2013-03-01 22:11:00,33.1,28.5,29.70,NW,305,3.0,10.0,83,0.00,,---,0.06,VWS V13.00,2013-03-02 03:11:00,
2013-03-01 22:16:00,33.0,28.4,29.70,NNW,333,2.0,10.0,83,0.00,,---,0.06,VWS V13.00,2013-03-02 03:16:00,
2013-03-01 22:21:00,33.0,28.4,29.70,WNW,292,2.0,10.0,83,0.00,,---,0.06,VWS V13.00,2013-03-02 03:21:00,
2013-03-01 22:26:00,33.0,28.4,29.70,NW,314,2.0,10.0,83,0.00,,---,0.06,VWS V13.00,2013-03-02 03:26:00,
2013-03-01 22:31:00,32.9,28.3,29.70,NW,313,2.0,10.0,83,0.00,,---,0.06,VWS V13.00,2013-03-02 03:31:00,
2013-03-01 22:36:00,32.8,28.2,29.70,North,349,4.0,11.0,83,0.00,,---,0.06,VWS V13.00,2013-03-02 03:36:00,
2013-03-01 22:41:00,32.8,28.2,29.70,NW,321,0.0,7.0,83,0.00,,---,0.06,VWS V13.00,2013-03-02 03:41:00,
2013-03-01 22:46:00,32.8,28.5,29.70,NNW,333,1.0,9.0,84,0.00,,---,0.06,VWS V13.00,2013-03-02 03:46:00,
2013-03-01 22:51:00,32.8,28.5,29.70,NW,313,2.0,9.0,84,0.00,,---,0.06,VWS V13.00,2013-03-02 03:51:00,
2013-03-01 22:56:00,32.7,28.1,29.70,NNW,329,3.0,9.0,83,0.00,,---,0.06,VWS V13.00,2013-03-02 03:56:00,
2013-03-01 23:01:00,32.7,28.1,29.69,NW,325,1.0,9.0,83,0.00,,---,0.06,VWS V13.00,2013-03-02 04:01:00,
2013-03-01 23:06:00,32.6,28.3,29.69,NNW,336,4.0,9.0,84,0.00,,---,0.06,VWS V13.00,2013-03-02 04:06:00,
2013-03-01 23:11:00,32.6,28.3,29.69,NW,321,1.0,10.0,84,0.00,,---,0.06,VWS V13.00,2013-03-02 04:11:00,
2013-03-01 23:16:00,32.6,28.3,29.69,WNW,303,1.0,10.0,84,0.00,,---,0.06,VWS V13.00,2013-03-02 04:16:00,
2013-03-01 23:21:00,32.5,28.2,29.69,NNW,329,0.0,10.0,84,0.00,,---,0.06,VWS V13.00,2013-03-02 04:21:00,
2013-03-01 23:26:00,32.5,28.2,29.69,NW,306,0.0,10.0,84,0.00,,---,0.06,VWS V13.00,2013-03-02 04:26:00,
2013-03-01 23:31:00,32.5,28.2,29.69,NW,326,2.0,10.0,84,0.00,,---,0.06,VWS V13.00,2013-03-02 04:31:00,
2013-03-01 23:36:00,32.4,28.1,29.69,NNW,329,5.0,10.0,84,0.00,,---,0.06,VWS V13.00,2013-03-02 04:36:00,
2013-03-01 23:41:00,32.4,28.1,29.69,WNW,284,1.0,6.0,84,0.00,,---,0.06,VWS V13.00,2013-03-02 04:41:00,
2013-03-01 23:46:00,32.4,28.1,29.69,WNW,303,1.0,7.0,84,0.00,,---,0.06,VWS V13.00,2013-03-02 04:46:00,
2013-03-01 23:51:00,32.3,28.3,29.69,WNW,298,0.0,7.0,85,0.00,,---,0.06,VWS V13.00,2013-03-02 04:51:00,
2013-03-01 23:56:00,32.3,28.0,29.70,NW,310,1.0,7.0,84,0.00,,---,0.06,VWS V13.00,2013-03-02 04:56:00,